Home   Weather   Rouyn-Noranda   Past weeks

Flag for Canada Past Weather in Rouyn-Noranda, Quebec, Canada — Yesterday and Last 2 Weeks

Now
54 °F

Passing clouds.


Feels Like: 54 °F
Forecast: 54 / 64 °F
Wind: 2 mph from Southwest

Location: Rouyn Airport

Current Time: Aug 31, 2016 at 2:32:37 AM

Latest Report: Aug 31, 2016 at 2:00 AM


Visibility: 15 mi

Pressure: 29.96 "Hg

Humidity: 94%

Dew Point: 52 °F

Location of Rouyn-NorandaLocation

Past Weather in Rouyn-Noranda — Graph

°F

Rouyn-Noranda Temperature Yesterday

Maximum temperature yesterday: 75 °F (at 6:00 PM)
Minimum temperature yesterday: 59 °F (at 5:00 AM)
Average temperature yesterday: 65 °F

High & Low Weather Summary for the Past Weeks

 TemperatureHumidityPressure
High82 °F (Aug 19, 1:00 PM)100% (Aug 16, 6:00 AM)30.30 "Hg (Aug 16, 6:00 AM)
Low45 °F (Aug 27, 3:00 AM)46% (Aug 22, 4:00 PM)29.37 "Hg (Aug 21, 5:00 AM)
Average65 °F82%29.97 "Hg
* Reported Aug 16 1:00 AM — Aug 31 1:00 AM, Rouyn-Noranda, Weather by CustomWeather, © 2016

Note: Actual official high and low records may vary slightly from our data, if they occured in-between our weather recording intervals... More about our weather records

Advertising

Rouyn-Noranda Weather History for the Previous 24 Hours

Scroll right to see more
 ConditionsComfort  
Time TempWeatherWind HumidityBarometerVisibility
1:00 AM
Wed, Aug 31
61 °FPassing clouds.6 mph77%29.94 "Hg15 mi
12:00 AM63 °FPassing clouds.7 mph77%29.94 "Hg15 mi
11:00 PM
Tue, Aug 30
64 °FPassing clouds.3 mph83%29.93 "Hg15 mi
10:00 PM64 °FPassing clouds.3 mph88%29.94 "Hg15 mi
9:00 PM63 °FPassing clouds.3 mph88%29.93 "Hg15 mi
8:00 PM70 °FPassing clouds.3 mph73%29.91 "Hg15 mi
7:00 PM73 °FScattered showers. Scattered clouds.3 mph69%29.91 "Hg15 mi
6:00 PM75 °FBroken clouds.10 mph65%29.91 "Hg15 mi
5:00 PM73 °FPartly sunny.6 mph69%29.92 "Hg15 mi
4:00 PM73 °FPartly sunny.6 mph69%29.93 "Hg15 mi
3:00 PM70 °FPartly sunny.7 mph83%29.96 "Hg15 mi
2:00 PM68 °FPartly sunny.12 mph78%29.98 "Hg15 mi
1:00 PM68 °FOvercast.7 mph83%29.99 "Hg15 mi
12:00 PM68 °FPartly sunny.10 mph83%30.00 "Hg15 mi
11:00 AM64 °FPartly sunny.10 mph88%30.01 "Hg15 mi
10:00 AM64 °FMostly cloudy.9 mph88%30.02 "Hg15 mi
9:00 AM63 °FPartly sunny.8 mph88%30.03 "Hg15 mi
8:00 AM61 °FMostly cloudy.7 mph94%30.05 "Hg15 mi
7:00 AM59 °FLow clouds.8 mph100%30.06 "Hg10 mi
6:00 AM59 °FFog.6 mph94%30.08 "Hg4 mi
5:00 AM59 °FSprinkles. Fog.10 mph94%30.11 "Hg6 mi
4:00 AM61 °FSprinkles. Overcast.7 mph83%30.10 "Hg15 mi
3:53 AM61 °FSprinkles. Overcast.7 mph83%30.11 "Hg15 mi
3:00 AM61 °FOvercast.6 mph77%30.11 "Hg15 mi
2:00 AM61 °FMostly cloudy.5 mph77%30.13 "Hg15 mi
Weather by CustomWeather, © 2016

See weather overviewHow to use our weather pages